Location: Kott?ru
(16.6209°N, 80.6208°E)
Time: 11:42:07
(UTC+00:00)

Tiangong - Visible Passes

Search period start: 22 January 2022 00:00
Search period end: 01 February 2022 00:00
Orbit: 383 x 386 km, 41.5° (Epoch: 21 January)

Date Brightness Start Highest point End Pass type
(mag) Time Alt. Az. Time Alt. Az. Time Alt. Az.
22 Jan 1.8 13:51:01 10° WSW 13:54:04 46° NW 13:54:09 45° NW visible
22 Jan 3.7 23:43:01 12° S 23:43:01 12° S 23:43:28 10° S visible
23 Jan 1.2 12:51:19 10° SW 12:54:26 62° SE 12:57:34 10° ENE visible
24 Jan 3.3 13:29:13 10° W 13:31:36 19° NW 13:33:33 12° N visible
